[[{"header":{"parameterUnit":"m.s-1","parameterCategory":1,"la1":30.2991,"la2":30.254,"lo1":-89.0895,"lo2":-89.0444,"dy":0.0017,"dx":0.0017,"nx":28,"ny":28,"refTime":"2025-05-20T21:00:00:Z","depth":0,"parameterNumber":2,"parameterNumberName":"U-component_of_WINDS"},"data":[0,0,0,0,0,0,0,0,0,0,0,0,0,0,0,0,0,0,0,0,0,0,0,0,0,0,0,0,0,0,0,0,0,0,0,0,0,0,0,0,0,0,0,0,0,0,0,0,0,0,0,0,0,0,0,0,0,0,-3.3282,-3.3282,0,-3.3328,-3.3329,-3.3329,-3.3358,-3.3358,-3.3358,-3.3358,-3.3402,-3.3403,-3.3404,0,0,0,0,0,0,0,0,0,0,0,0,0,-3.3213,-3.3214,-3.3282,-3.3282,-3.3283,-3.3328,-3.3329,-3.3329,-3.3357,-3.3358,-3.3358,-3.3358,-3.3402,-3.3403,-3.3404,0,0,0,0,0,0,0,0,0,0,0,0,0,-3.325,-3.3215,-3.3281,-3.3302,-3.3305,-3.3328,-3.3329,-3.333,-3.3357,-3.3358,-3.3358,-3.3358,-3.3401,-3.3403,-3.3404,-3.341,0,0,-3.3409,-3.341,0,0,0,0,0,0,0,0,-3.3247,-3.3252,-3.3299,-3.3301,-3.3304,-3.3337,-3.3321,-3.3356,-3.3357,-3.3337,-3.3358,-3.3358,-3.338,-3.3383,-3.3392,-3.3412,-3.3414,-3.3409,-3.341,-3.3411,-3.3411,0,0,0,0,0,0,0,-3.3245,-3.325,-3.33,-3.3299,-3.3302,-3.3308,-3.3314,-3.3328,-3.3357,-3.3339,-3.3341,-3.3347,-3.3381,-3.339,-3.3393,-3.3414,-3.3409,-3.3411,-3.3412,-3.3412,-3.3441,-3.3441,0,0,0,0,0,0,-3.324,-3.3248,-3.3298,-3.3301,-3.3276,-3.3309,-3.3315,-3.3326,-3.3357,-3.3362,-3.3346,-3.3348,-3.3387,-3.3391,-3.3394,-3.3403,-3.3411,-3.3412,-3.3413,-3.3441,-3.3441,-3.3441,0,0,0,0,0,0,-3.3238,-3.3244,-3.3297,-3.3275,-3.3282,-3.331,-3.3322,-3.3327,-3.3336,-3.3362,-3.3367,-3.335,-3.3388,-3.3392,-3.3406,-3.3405,-3.3413,-3.3414,-3.3441,-3.3441,-3.3441,-3.3419,0,0,0,0,0,0,-3.3236,-3.3243,-3.3246,-3.3275,-3.3284,-3.3308,-3.3322,-3.3328,-3.3339,-3.3341,-3.3367,-3.3371,-3.3388,-3.3403,-3.3407,-3.3407,-3.3416,-3.3442,-3.3441,-3.3441,-3.342,-3.3418,-3.3416,0,0,0,0,0,-3.3233,-3.3237,-3.3246,-3.3252,-3.3288,-3.3308,-3.3313,-3.3333,-3.3339,-3.3341,-3.3358,-3.3371,-3.3404,-3.3405,-3.3409,-3.3409,-3.3442,-3.3441,-3.3441,-3.3421,-3.3418,-3.3417,0,0,0,0,0,0,-3.3206,-3.3241,-3.3252,-3.3265,-3.3284,-3.3313,-3.3317,-3.333,-3.3346,-3.3347,-3.337,-3.3376,-3.3387,-3.34,-3.3399,-3.3416,-3.3424,-3.3425,-3.3407,-3.3405,-3.3404,-3.34,-3.3417,0,0,0,0,0,-3.3202,-3.3216,-3.3246,-3.3255,-3.3264,-3.3289,-3.3298,-3.3312,-3.3331,-3.3339,-3.3357,-3.3374,-3.3389,-3.3398,-3.3413,-3.3422,-3.3428,-3.3424,-3.3423,-3.3421,-3.3421,-3.3427,-3.3426,-3.344,-3.344,-3.344,0,0,-3.3192,-3.3214,-3.3221,-3.325,-3.3266,-3.3279,-3.3295,-3.3308,-3.3318,-3.3341,-3.3355,-3.3369,-3.339,-3.3401,-3.3407,-3.3412,-3.3419,-3.3421,-3.3419,-3.342,-3.3426,-3.3425,-3.3424,-3.3439,-3.3439,-3.3439,0,0,-3.3182,-3.32,-3.321,-3.3226,-3.325,-3.3267,-3.3269,-3.3297,-3.3307,-3.3322,-3.334,-3.3351,-3.3376,-3.339,-3.34,-3.3397,-3.3408,-3.3401,-3.3391,-3.3397,-3.3396,-3.3395,-3.3393,-3.3392,-3.3401,-3.3401,-3.3401,0,-3.3167,-3.319,-3.3213,-3.3226,-3.3238,-3.326,-3.3269,-3.3283,-3.3311,-3.3318,-3.3323,-3.3355,-3.3371,-3.3386,-3.3385,-3.3393,-3.3396,-3.3398,-3.3394,-3.3393,-3.3393,-3.3392,-3.3391,-3.34,-3.34,-3.34,-3.34,0,-3.317,-3.3185,-3.3189,-3.3217,-3.3229,-3.324,-3.3264,-3.3274,-3.3287,-3.3303,-3.3318,-3.3337,-3.3357,-3.3362,-3.3374,-3.3379,-3.3381,-3.339,-3.3399,-3.339,-3.3389,-3.3389,-3.3398,-3.3398,-3.3399,-3.3399,0,0,-3.3143,-3.3184,-3.3185,-3.3198,-3.3227,-3.3238,-3.325,-3.327,-3.3278,-3.3296,-3.3306,-3.3327,-3.3336,-3.3347,-3.3362,-3.3367,-3.3362,-3.3375,-3.3376,-3.3372,-3.3368,-3.3361,-3.336,-3.3371,-3.3371,-3.3371,-3.3366,0,-3.3137,-3.316,-3.3182,-3.3197,-3.3211,-3.3233,-3.3243,-3.3261,-3.3277,-3.329,-3.3306,-3.332,-3.3331,-3.3338,-3.3344,-3.3361,-3.3362,-3.3362,-3.3379,-3.3379,-3.3373,-3.336,-3.3352,-3.3347,-3.3366,-3.3366,-3.3366,0,-3.3133,-3.3151,-3.3168,-3.3196,-3.3203,-3.3212,-3.3232,-3.3245,-3.3266,-3.3277,-3.329,-3.3306,-3.3318,-3.3327,-3.3344,-3.3344,-3.3352,-3.3361,-3.3362,-3.3363,-3.3372,-3.336,-3.3346,-3.3345,-3.3366,-3.3366,-3.3366,0,-3.3111,-3.314,-3.3154,-3.3165,-3.3198,-3.3203,-3.3217,-3.3239,-3.325,-3.3267,-3.3274,-3.3293,-3.3302,-3.3316,-3.3336,-3.334,-3.3351,-3.336,-3.3359,-3.3359,-3.336,-3.3359,-3.3346,-3.3366,-3.3366,-3.3366,-3.3366,0,-3.3101,-3.311,-3.3145,-3.3153,-3.3164,-3.3189,-3.3199,-3.3214,-3.3233,-3.3245,-3.3265,-3.3274,-3.33,-3.3313,-3.3329,-3.334,-3.3345,-3.3353,-3.3357,-3.3351,-3.335,-3.3356,-3.3357,-3.3366,-3.3366,-3.3366,-3.3366,0,-3.3078,-3.3102,-3.3118,-3.3149,-3.3157,-3.3163,-3.3189,-3.3198,-3.3215,-3.3229,-3.3233,-3.3259,-3.3276,-3.3297,-3.3319,-3.333,-3.334,-3.3346,-3.3333,-3.3335,-3.3333,-3.3332,-3.3322,-3.3322,-3.3343,-3.3342,-3.3342,0,-3.307,-3.3078,-3.311,-3.312,-3.3133,-3.3148,-3.316,-3.3185,-3.3196,-3.3221,-3.3226,-3.3244,-3.326,-3.3285,-3.3305,-3.3322,-3.3329,-3.3324,-3.3332,-3.3325,-3.3328,-3.3327,-3.3328,-3.3322,-3.3322,-3.3321,-3.3321,0,-3.3053,-3.3065,-3.3082,-3.3103,-3.3116,-3.3134,-3.3152,-3.3158,-3.3186,-3.3197,-3.3215,-3.3227,-3.3251,-3.3269,-3.3289,-3.3302,-3.3316,-3.3319,-3.332,-3.3313,-3.3305,-3.3309,-3.3327,-3.3319,-3.3319,-3.3319,-3.3319,-3.3319,-3.3037,-3.3045,-3.3069,-3.3087,-3.3104,-3.3121,-3.313,-3.3149,-3.3165,-3.3187,-3.32,-3.3217,-3.3238,-3.3267,-3.328,-3.3293,-3.3298,-3.3299,-3.3299,-3.3299,-3.3297,-3.3304,-3.3297,-3.3297,-3.3297,-3.3297,-3.3297,0,-3.3021,-3.3038,-3.3054,-3.308,-3.3094,-3.3107,-3.3128,-3.3139,-3.3154,-3.3173,-3.3188,-3.3209,-3.3226,-3.3248,-3.3267,-3.3273,-3.328,-3.3277,-3.3276,-3.3279,-3.3291,-3.3289,-3.3271,-3.3271,-3.3271,-3.3271,-3.3271,-3.3271,-3.3014,-3.3028,-3.3043,-3.3066,-3.3082,-3.31,-3.3111,-3.3126,-3.3142,-3.3164,-3.3179,-3.3194,-3.3214,-3.3235,-3.3251,-3.3257,-3.3263,-3.3258,-3.3266,-3.3276,-3.3278,-3.328,-3.3278,-3.3259,-3.3259,-3.3253,-3.3252,-3.3252]},{"header":{"parameterUnit":"m.s-1","parameterCategory":1,"la1":30.2991,"la2":30.254,"lo1":-89.0895,"lo2":-89.0444,"dy":0.0017,"dx":0.0017,"nx":28,"ny":28,"refTime":"2025-05-20T21:00:00:Z","depth":0,"parameterNumber":3,"parameterNumberName":"V-component_of_WINDS"},"data":[0,0,0,0,0,0,0,0,0,0,0,0,0,0,0,0,0,0,0,0,0,0,0,0,0,0,0,0,0,0,0,0,0,0,0,0,0,0,0,0,0,0,0,0,0,0,0,0,0,0,0,0,0,0,0,0,0,0,2.3283,2.3284,0,2.3361,2.3362,2.3363,2.3446,2.3447,2.3449,2.345,2.3526,2.3526,2.3527,0,0,0,0,0,0,0,0,0,0,0,0,0,2.3204,2.3205,2.3283,2.3284,2.3285,2.3361,2.3362,2.3363,2.3446,2.3447,2.3449,2.345,2.3525,2.3526,2.3527,0,0,0,0,0,0,0,0,0,0,0,0,0,2.3256,2.3205,2.3283,2.3335,2.3341,2.3361,2.3362,2.3363,2.3446,2.3448,2.3449,2.3451,2.3525,2.3526,2.3528,2.35,0,0,2.3532,2.3532,0,0,0,0,0,0,0,0,2.3253,2.3258,2.3327,2.3332,2.3338,2.3396,2.3362,2.3409,2.3445,2.3406,2.345,2.3452,2.3481,2.3486,2.3496,2.3504,2.3507,2.3532,2.3533,2.3533,2.3534,0,0,0,0,0,0,0,2.3249,2.3255,2.3314,2.3328,2.3335,2.3355,2.3364,2.3371,2.3432,2.3409,2.3416,2.3424,2.3484,2.3495,2.3499,2.3508,2.3532,2.3533,2.3534,2.3534,2.35,2.3499,0,0,0,0,0,0,2.3238,2.3252,2.3311,2.3316,2.3299,2.3355,2.3365,2.3375,2.3432,2.3443,2.3422,2.3428,2.3492,2.3497,2.3502,2.3475,2.3533,2.3535,2.3535,2.3502,2.35,2.3498,0,0,0,0,0,0,2.3236,2.3242,2.3308,2.3286,2.3296,2.3354,2.3365,2.3376,2.3387,2.3442,2.3453,2.3422,2.3493,2.35,2.3501,2.3479,2.3535,2.3536,2.3504,2.3501,2.3499,2.3421,0,0,0,0,0,0,2.3233,2.3241,2.3231,2.3285,2.3297,2.3306,2.3364,2.3376,2.339,2.3397,2.3445,2.3455,2.3495,2.3499,2.3502,2.3482,2.3537,2.3506,2.3503,2.35,2.3426,2.3416,2.3408,0,0,0,0,0,2.323,2.3204,2.323,2.3237,2.3286,2.3304,2.3311,2.3359,2.3387,2.3378,2.3414,2.3453,2.3481,2.3498,2.3503,2.3483,2.3508,2.3504,2.35,2.343,2.3418,2.3408,0,0,0,0,0,0,2.3144,2.3212,2.3241,2.3233,2.3263,2.3319,2.3308,2.3345,2.3366,2.3372,2.343,2.344,2.3435,2.3459,2.3477,2.3461,2.35,2.3497,2.3445,2.3434,2.3425,2.3419,2.3539,0,0,0,0,0,2.3124,2.3135,2.3194,2.318,2.3194,2.3248,2.3258,2.3294,2.3326,2.3338,2.3374,2.3403,2.342,2.3428,2.3445,2.343,2.3442,2.3419,2.341,2.3402,2.3398,2.3395,2.3385,2.3485,2.3485,2.3485,0,0,2.3083,2.3122,2.3124,2.3164,2.3191,2.3201,2.3258,2.3265,2.3272,2.3339,2.3343,2.3371,2.3407,2.3401,2.3399,2.3421,2.3374,2.3397,2.3391,2.3391,2.339,2.338,2.3372,2.3483,2.3483,2.3483,0,0,2.3013,2.3043,2.3037,2.3064,2.3105,2.3142,2.314,2.3192,2.3214,2.3219,2.327,2.328,2.3305,2.333,2.3346,2.3289,2.3326,2.3293,2.3246,2.3241,2.3233,2.3227,2.3208,2.32,2.329,2.3289,2.3289,0,2.2956,2.2973,2.3028,2.3033,2.305,2.3113,2.3107,2.313,2.3174,2.3184,2.3208,2.3243,2.3272,2.3273,2.326,2.327,2.3271,2.3287,2.323,2.3224,2.3219,2.3201,2.3194,2.3285,2.3286,2.3286,2.3287,0,2.2902,2.2913,2.2903,2.2947,2.2962,2.2961,2.3016,2.3025,2.306,2.3095,2.3101,2.3138,2.3166,2.3169,2.3201,2.3175,2.3188,2.322,2.326,2.3204,2.3189,2.3182,2.3279,2.3281,2.3282,2.3283,0,0,2.2777,2.2855,2.285,2.2872,2.2924,2.2933,2.2936,2.2965,2.2973,2.3002,2.3006,2.3028,2.3059,2.3077,2.3114,2.311,2.3065,2.3143,2.3145,2.3128,2.304,2.3016,2.3007,2.309,2.3089,2.3088,2.3038,0,2.2717,2.2727,2.2778,2.2773,2.2786,2.2848,2.2851,2.2883,2.2916,2.2931,2.2967,2.2983,2.3022,2.3034,2.3033,2.307,2.3048,2.3075,2.3095,2.3095,2.3084,2.2999,2.2972,2.2922,2.3032,2.3031,2.303,0,2.2647,2.2675,2.2671,2.2727,2.2734,2.2735,2.2768,2.2781,2.2819,2.2844,2.2866,2.2908,2.2915,2.2954,2.2965,2.2982,2.2994,2.3014,2.3013,2.3017,2.3058,2.3,2.2907,2.29,2.3021,2.3022,2.3022,0,2.2557,2.2594,2.2598,2.2615,2.2678,2.2679,2.2705,2.2746,2.2761,2.2789,2.2799,2.2827,2.2842,2.2862,2.2911,2.2934,2.2917,2.2959,2.2938,2.2936,2.293,2.293,2.2838,2.2937,2.2937,2.2938,2.2938,0,2.2484,2.248,2.2559,2.2561,2.2559,2.2619,2.2615,2.2647,2.2683,2.2693,2.2748,2.2756,2.282,2.2835,2.2873,2.2878,2.2883,2.2904,2.2914,2.2899,2.2896,2.2907,2.2912,2.2936,2.2936,2.2936,2.2937,0,2.2383,2.2436,2.2445,2.2506,2.2521,2.2517,2.257,2.2574,2.2612,2.2624,2.263,2.2689,2.271,2.2762,2.2795,2.2821,2.2816,2.2834,2.2803,2.281,2.2786,2.2787,2.2697,2.2689,2.2792,2.2791,2.279,0,2.2333,2.2332,2.2395,2.2406,2.2431,2.2448,2.2465,2.2524,2.2539,2.2586,2.2585,2.2611,2.2635,2.2666,2.2711,2.2738,2.2758,2.2725,2.2762,2.2748,2.2759,2.2758,2.2759,2.2716,2.2715,2.2713,2.2713,0,2.2239,2.2266,2.2289,2.2322,2.2341,2.2369,2.24,2.2406,2.2473,2.2487,2.2511,2.2529,2.2566,2.2592,2.2626,2.2653,2.2694,2.2701,2.2698,2.2682,2.2664,2.2675,2.2781,2.2702,2.2703,2.2704,2.2705,2.2705,2.2163,2.2166,2.2211,2.2236,2.2266,2.2294,2.2303,2.2344,2.2365,2.2401,2.2434,2.2455,2.2496,2.2547,2.2572,2.2589,2.2609,2.2604,2.2603,2.2601,2.2595,2.2662,2.2595,2.2596,2.2596,2.2596,2.2596,0,2.2072,2.2106,2.2128,2.2171,2.2191,2.223,2.2267,2.2281,2.2299,2.2335,2.2358,2.2387,2.2413,2.2461,2.2492,2.2496,2.2516,2.2502,2.2502,2.2508,2.2574,2.2574,2.2486,2.2486,2.2486,2.2486,2.2486,2.2486,2.2028,2.2036,2.2069,2.2093,2.2126,2.2148,2.2167,2.2194,2.2223,2.2253,2.2276,2.2308,2.235,2.2384,2.241,2.2424,2.2433,2.2413,2.2433,2.2493,2.2503,2.2513,2.2514,2.2414,2.2414,2.2366,2.2365,2.2365]}]]